{"data":{"norad_id":58455,"epoch":"2026-09-20T08:40:04.601568Z","epoch_age_seconds":158763,"freshness":"FRESH","line1":"1 58455U 23183U   26263.36116437  .00000374  00000+0  23118-4 0  9996","line2":"2 58455  43.0032  22.4828 0001261 264.7100  95.3608 15.27579904156504","mean_motion":15.27579904,"eccentricity":0.0001261,"inclination_deg":43.0032,"raan_deg":22.4828,"arg_perigee_deg":264.71,"mean_anomaly_deg":95.3608,"bstar":2.3118e-5,"rev_number":15650,"period_min":94.266754637799,"perigee_km":482.18418789524,"apogee_km":483.91457910116,"semimajor_km":6861.1863834982,"source":"CELESTRAK","updated_at":"2026-09-21T09:00:33.879241Z"}}